COSMOS 1275 DEB, 17792

Orbit data source: Space-Track

COSMOS 1275 DEB, 17792 is space debris in LEO originally from a launch on Thu, 04 Jun 1981 UTC launched from the Plesetsk Missile And Space Complex (PKMTR). Debris objects in space refer to the collection of defunct objects orbiting the Earth. Examples of debris include non-operational satellites, rocket bodies, and fragments generated from explosions, collisions, or faulty payload assembly.

Loading next visibility...
Identifier
17792, 1981-053LN
Orbit
LEO
Country
Flag of CISCIS
Related business
Manufacturer
Unknown
Mission
Spacecraft
Bus & Motor
Unknown
Mass
Unknown
Launch date (UTC)
1981-06-04 (44 years ago)
Launch vehicle
Unknown
Launch site
Plesetsk Missile And Space Complex (PKMTR)
Object type
Payload
Rocket body
Debris
Shape & HBR
Unknown shape, 0.1 m
Radar Cross Section
Small (<0.1 m²)

Expand to show TLE details & history
Last TLE update: 20 hours ago

TLE from 20 hours ago
0 COSMOS 1275 DEB
1 17792U 81053LN  25286.16191323  .00003133  00000-0  16932-2 0  9995
2 17792  82.9509  85.8821 0012654 237.7332 175.3417 14.12291669 61756
Epoch: 2025-10-13T03:53Z
TLE epoch observation values (Epoch: 2025-10-13T03:53:09.303Z)
Latitude
52.61305°
Longitude
14.88718°
Altitude
869.232 km
Speed
7.418 km/s
True Right ascension
06h 20m 34s
True Declination
52° 26' 58"
Sunlit
Object was in daylight at epoch
Visualization orbit readout
Latitude
Unknown
Longitude
Unknown
Altitude
Unknown
Speed
Unknown
Apparent Right ascension
Unknown
Apparent Declination
Unknown
Sunlit
N/A
Visualization observer readout
Local Sidereal Time
18:35:35
Azimuth
Unknown
Elevation
Unknown
Doppler factor
Unknown
Orbital elements
Apogee altitude
857.782 km
Perigee altitude
839.493 km
Semi-major axis
7,226.774 km
Eccentricity
0.00127
Inclination
82.9509°
RAAN
85.8821°
Arg. of periapsis
237.7332°
True anomaly
175.35346°
Mean anomaly
175.3417°
Eccentric anomaly
175.34758°
Mean motion
3.53286 °/min
Orbital period
101.9 mins
BSTAR
0.0016932
Loading maneuver chart data...
Computing Atmospheric mass density...

Documentation

Showing up to 5 results
|